www.pogodaiklimat.ru

Погода и климат >> Архив погоды >> Канада >> London


ПОГОДА в London

  • Прогноз погоды в London
  • Монитор погоды в London
  • Климат города

АРХИВ ПОГОДЫ в London

Время (UTC), дата Ветер
(напр.,м/с)
 
Видим.   Явления Облачность Т
(С)
Тd
(С)
f
(%)
Тe
(С)
Тes
(С)
Комфортность P
(гПа)
Po
(гПа)
Тmin
(С)
Tmax
(С)
R
(мм)
R24
(мм)
S
(см)
03 16.07 ЮЗ 3 19 км ясно +23.4 +20.1 82 +31 +31 очень
душно
1014.6 982.1
06 16.07 ЮВ 2 16 км ясно +21.1 +19.4 90 +26 +26 душно 1014.5 982.0 +17.5 +30.8
09 16.07 В 1 4800 м 4/0 2000 м
[]
+19.9 +19.3 96 +24 +24 комфорт 1014.0 981.5
12 16.07 Ю 2 12 км 9/0
[]
+24.3 +21.8 86 +31 +33 очень
душно
1013.5 981.1 +19.4 +30.8
15 16.07 ЮЗ 5 24 км 5/5 1000 м
[]
+29.6 +22.1 64 +38 +42 очень
душно
1013.2 980.8
18 16.07 Ю 7 24 км 8/8 1000 м
[]
+28.2 +20.5 63 +35 +36 очень
душно
1011.9 979.5 +19.4 +30.8
21 16.07 З 6 11 км 9/9 1000 м
[]
+24.4 +21.0 81 +31 +31 очень
душно
1010.8 978.3
00 17.07 ЮВ 4 19 км 9/9 1000 м
[]
+21.1 +20.2 95 +26 +26 душно 1011.3 978.8 +19.4 +31.7
03 17.07 З 2 12 км 5/0
[]
+21.0 +20.7 98 +27 +27 душно 1010.9 978.5
06 17.07 С 2 4800 м 10/10 200 м
[]
+19.9 +19.7 99 +24 +24 комфорт 1011.2 978.8 +19.4 +31.7
09 17.07 СЗ 4 24 км 4/4 1000 м
[]
+19.1 +16.9 87 +21 +21 комфорт 1011.5 978.9
12 17.07 С 4 24 км 4/4 1500 м
[]
+18.6 +13.6 73 +19 +20 1013.7 981.0 +17.7 +31.7
15 17.07 СЗ 5 24 км 1/1 1500 м
[]
+22.3 +13.8 59 +25 +32 комфорт 1014.4 981.7
18 17.07 СЗ 6 24 км 4/4 600 м
[]
+22.9 +12.1 51 +26 +30 жарко 1015.0 982.3 +17.7 +23.7
21 17.07 СЗ 7 24 км ясно +22.2 +12.1 53 +25 +28 комфорт 1014.9 982.2
00 18.07 СЗ 5 24 км ясно +21.0 +11.6 55 +23 +23 комфорт 1015.4 982.6 +17.7 +23.7
03 18.07 С 4 24 км ясно +16.5 +12.2 76 +16 +16 1016.7 983.8
06 18.07 З 3 24 км ясно +14.3 +12.4 88 +13 +13 1017.8 984.9 +14.3 +23.7
09 18.07 С 4 24 км ясно +13.2 +12.0 92 +12 +12 1018.1 985.1
12 18.07 СВ 2 24 км 3/0
[]
+15.6 +13.8 89 +15 +18 1019.3 986.3 +12.3 +23.7
15 18.07 С 4 24 км 6/6 1000 м
[]
+20.9 +13.0 61 +24 +28 комфорт 1019.6 986.6
18 18.07 СЗ 3 24 км 5/5 1500 м
[]
+22.9 +12.2 51 +26 +33 жарко 1019.0 986.0 +12.3 +23.1
21 18.07 СЗ 4 24 км 1/1 1500 м
[]
+22.8 +11.7 50 +25 +31 комфорт 1018.2 985.2
00 19.07 СЗ 3 24 км ясно +20.4 +10.2 52 +22 +23 комфорт 1018.2 985.2 +12.3 +24.3
03 19.07 СЗ 2 24 км ясно +14.8 +10.1 73 +15 +15 1018.6 985.6
06 19.07 С 2 24 км ясно +11.0 +9.2 89 +10 +10 1018.9 985.8 +10.3 +24.3
09 19.07 В 1 24 км ясно +9.7 +9.0 95 +9 +9 1019.3 986.2
12 19.07 С 1 24 км 1/0
[]
+15.2 +11.2 77 +16 +20 1019.9 986.8 +9.1 +24.3
15 19.07 СЗ 1 24 км 1/1 1000 м
[]
+22.8 +12.8 53 +26 +40 жарко 1019.8 986.8
18 19.07 Ю 2 24 км 5/5 1500 м
[]
+24.3 +12.8 49 +26 +35 жарко 1018.9 985.9 +9.1 +25.6
21 19.07 ЮВ 4 24 км 8/8 1500 м
[]
+25.0 +13.8 50 +27 +28 жарко 1017.9 984.9
00 20.07 ЮВ 3 24 км 6/0
[]
+23.3 +11.8 48 +26 +26 жарко 1017.2 984.3 +9.1 +25.6
03 20.07 В 2 24 км ясно +17.6 +11.1 66 +18 +18 1016.8 984.0
06 20.07 В 2 24 км ясно +15.7 +12.0 79 +16 +16 1015.8 983.0 +9.1 +25.6
09 20.07 В 3 24 км ясно +15.6 +13.1 85 +15 +15 1015.3 982.5
12 20.07 В 4 24 км 6/6 1500 м
[]
+19.9 +17.1 84 +23 +23 комфорт 1014.5 981.8 +15.3 +25.6
15 20.07 Ю 7 24 км 9/9 1500 м
[]
+25.1 +18.9 68 +30 +30 душно 1013.9 981.2
18 20.07 ЮВ 7 24 км 10/10 1000 м
[]
+25.9 +18.3 63 +31 +31 очень
душно
1013.0 980.3 +15.3 +26.5
21 20.07 ЮЗ 3 12 км 10/10 1000 м
[]
+20.6 +18.6 88 +25 +25 комфорт 1011.7 978.9
00 21.07 Ю 4 24 км 10/10 1000 м
[]
+22.2 +20.4 90 +29 +29 очень
душно
1010.6 978.0 +15.3 +27.2
03 21.07 ЮВ 4 19 км 8/8 600 м
[]
+20.7 +19.5 93 +25 +25 комфорт 1010.7 978.2
06 21.07 ЮВ 4 19 км 8/8 600 м
[]
+20.8 +19.6 93 +26 +26 душно 1010.2 977.8 +15.3 +27.2
09 21.07 ЮВ 6 24 км 9/9 600 м
[]
+21.2 +18.4 84 +25 +25 комфорт 1009.3 976.8
12 21.07 ЮВ 5 24 км 10/10 300 м
[]
+20.8 +18.4 86 +25 +25 комфорт 1010.0 977.5 +19.9 +27.2
15 21.07 ЮВ 8 24 км 10/10 600 м
[]
+22.6 +17.3 72 +27 +27 душно 1010.5 978.0
18 21.07 ЮВ 6 24 км 10/10 600 м
[]
+22.3 +17.4 74 +27 +27 душно 1010.8 978.3 +19.9 +22.9
21 21.07 В 9 24 км 9/9 600 м
[]
+24.6 +18.3 68 +29 +29 душно 1010.3 977.8
00 22.07 В 5 24 км 9/9 1500 м
[]
+20.9 +18.4 86 +25 +25 комфорт 1010.7 978.1 +19.9 +25.4
03 22.07 В 5 24 км 10/0
[]
+20.4 +19.1 92 +24 +24 комфорт 1010.9 978.3
06 22.07 В 4 24 км 10/0
[]
+19.4 +17.2 87 +22 +22 комфорт 1010.6 978.0 +19.4 +25.4
09 22.07 СВ 5 16 км 10/10 200 м
[]
+16.5 +15.6 94 +16 +16 1009.8 977.2
12 22.07 С 3 6000 м 10/10 1000 м
[]
+15.1 +14.3 95 +14 +14 1009.5 976.8 +15.0 +25.4
15 22.07 С 5 2400 м 9/9 200 м
[]
+16.6 +15.6 94 +16 +17 1008.8 976.1
18 22.07 С 4 6000 м 10/10 100 м
[]
+17.0 +16.2 95 +17 +17 1008.5 975.8 +15.0 +19.4
21 22.07 З 2 24 км 10/10 200 м
[]
+18.5 +16.7 89 +20 +20 1008.8 976.1
00 23.07 ЮВ 3 24 км 9/9 300 м
[]
+19.3 +17.0 87 +22 +22 комфорт 1010.7 977.9 +15.0 +19.4

 

Местоположение метеостанции London (Канада): широта 43.03 долгота -81.15 высота над уровнем моря 278 м.

В архиве по умолчанию представлена погода в London за последнюю неделю. Архивные данные за месяц целиком и за предыдущие месяцы, начиная с января 2011 года, Вы можете получить, выбрав интересующий диапазон дат из раскрывающегося списка и нажав кнопку "Ввод!".


*Определитесь, кто Вы:
робот инопланетянин человек

Внимание! Время в таблицах - всемирное. Для получения местного времени необходимо прибавить поправку, которая в London равна -5 ч.

Смотрите также архив погоды в соседних городах и на ближайших метеорологических станциях:

Погода в London Cs (Канада) (1 км)
Погода в Delhi (Канада) (52 км)
Погода в Brantford Airport (Канада) (68 км)
Погода в Simcoe (Канада) (74 км)
Погода в Waterloo Wellington (Канада) (78 км)
Погода в Ridgetown Rcs (Канада) (88 км)
Погода в Elora Rcs (Канада) (91 км)
Погода в Sarnia Climate (Канада) (94 км)
Погода в Goderich (Канада) (94 км)
Погода в Guelph Turfgrass (Канада) (95 км)

Пояснения к столбцам:

Ветер - указаны скорость ветра в м/с - средняя за 10 мин, порывы в срок и между сроками (в фигурных скобках) и направление, откуда дует ветер: С - северный, СВ - северо-восточный, В - восточный, ЮВ - юго-восточный, Ю - южный, ЮЗ - юго-западный, З - западный, СЗ - северо-западный.
Видимость - горизонтальная дальность видимости в метрах или километрах. При видимости от 1 до 10 км при отсутствии осадков обычно наблюдается дымка, при ухудшении видимости до 1 км и менее - туман. В сухую погоду видимость может ухудшаться дымом, пылью или мглою.
Явления - указаны атмосферные явления, наблюдавшиеся в срок или в последний час перед сроком; фигурными скобками обозначены явления, наблюдавшиеся между сроками (за 1-3 часа до срока); квадратными скобками обозначены град или гололедные отложения с указанием их диаметра в мм.
Облачность - указаны через наклонную черту общая и нижняя облачность в баллах и высота нижней границы облаков в метрах; квадратными скобками обозначены формы облаков: Ci - перистые, Cs - перисто-слоистые, Cc - перисто-кучевые, Ac - высококучевые, As - высокослоистые, Sc - слоисто-кучевые, Ns - слоисто-дождевые, Cu - кучевые, Cb - кучево-дождевые. Подробнее классификацию облаков см. в Атласе облаков (PDF).
T - Температура воздуха - температура, измеренная на высоте 2 м над землей.
Td - Температура точки росы - температура, при понижении до которой содержащийся в воздухе водяной пар достигнет насыщения.
f - Относительная влажность воздуха - влажноcть воздуха, измеренная на высоте 2 м над землей.
Te - Эффективная температура - температура, которую ощущает одетый по сезону человек в тени. Характеристика душности погоды. При расчете учитывается влияние влажности воздуха и скорости ветра на теплоощущения человека.
Tes - Эффективная температура на солнце - температура, которую ощущает человек, с поправкой на солнечный нагрев. Характеристика знойности погоды. Зависит от высоты солнца над горизонтом, облачности и скорости ветра. Ночью, в пасмурную погоду, а также при ветре 12 м/с и более поправка равна нулю.
P - Атмосферное давление - приведенное к уровню моря атмосферное давление.
Po - Атмосферное давление - измеренное на уровне метеостанции атмосферное давление.
Tmin - Минимальная температура - минимум температуры воздуха на высоте 2 м над землей.
Tmax - Максимальная температура - максимум температуры воздуха на высоте 2 м над землей.
R - Количество осадков - Количество выпавших осадков за период времени, мм. При наведении курсора мыши на число - период времени, за который выпало указанное количество осадков.
R24 - Количество осадков - Количество выпавших осадков за 24 часа, мм.
S - Снежный покров - Высота снежного покрова, см. При наведении курсора мыши на число - состояние снежного покрова и степень покрытия местности в баллах.